Torna al catalogo

DELTA 1 DEB

AttivoPO
NORAD 26833·DEBRIS·🇺🇸 United States

Lanciato Jun 12, 1975 da Vandenberg Space Force Base

Loading…

Prossimi Passaggi (prossime 24 ore)

TLE

AggiornatoSource: Space-Track

Epoca: Sep 14, 2026, 14:24 UTC

1 26833U 75052KM  26257.60054780  .00000136  00000-0  61661-3 0  9996
2 26833  99.7260 170.7249 0367347 130.7486 350.1298 12.73627094661019

Traccia DELTA 1 DEB in tempo reale con AllMySat

Download on the App Store